Time,TemperatureF,DewpointF,PressureIn,WindDirection,WindDirectionDegrees,WindSpeedMPH,WindSpeedGustMPH,Humidity,HourlyPrecipIn,Conditions,Clouds,dailyrainin,SoftwareType,DateUTC
2013-01-12 00:02:00,-2.6,17.2,17.73,SSE,155,0.0,0.0,22,-99.99,,,-99.99,meteohub,2013-01-12 07:02:00,
2013-01-12 00:07:00,-2.6,17.2,17.73,SE,131,0.0,0.0,22,-99.99,,,-99.99,meteohub,2013-01-12 07:07:00,
2013-01-12 00:12:00,-3.5,18.0,17.73,SE,130,0.0,0.0,23,-99.99,,,-99.99,meteohub,2013-01-12 07:12:00,
2013-01-12 00:17:00,-3.6,17.6,17.73,SE,131,0.0,0.0,23,-99.99,,,-99.99,meteohub,2013-01-12 07:17:00,
2013-01-12 00:22:00,-3.1,17.6,17.73,SE,133,0.0,0.0,23,-99.99,,,-99.99,meteohub,2013-01-12 07:22:00,
2013-01-12 00:27:00,-2.4,17.2,17.73,SSE,158,0.0,0.0,22,-99.99,,,-99.99,meteohub,2013-01-12 07:27:00,
2013-01-12 00:32:00,-2.0,17.2,17.73,SW,219,0.0,0.0,22,-99.99,,,-99.99,meteohub,2013-01-12 07:32:00,
2013-01-12 00:37:00,-2.0,18.0,17.73,SSW,211,0.0,0.0,23,-99.99,,,-99.99,meteohub,2013-01-12 07:37:00,
2013-01-12 00:42:00,-1.5,17.6,17.73,SSW,196,0.0,0.0,23,-99.99,,,-99.99,meteohub,2013-01-12 07:42:00,
2013-01-12 00:47:00,-1.7,17.6,17.73,SSW,200,0.0,0.0,23,-99.99,,,-99.99,meteohub,2013-01-12 07:47:00,
2013-01-12 00:52:00,-1.7,17.2,17.73,SSW,200,0.0,0.0,22,-99.99,,,-99.99,meteohub,2013-01-12 07:52:00,
2013-01-12 00:57:00,-1.8,17.2,17.73,SSW,200,0.0,0.0,22,-99.99,,,-99.99,meteohub,2013-01-12 07:57:00,
2013-01-12 01:02:00,-2.2,18.0,17.73,SSW,200,0.0,0.0,23,-99.99,,,-99.99,meteohub,2013-01-12 08:02:00,
2013-01-12 01:07:00,-2.2,17.6,17.73,SSW,200,0.0,0.0,23,-99.99,,,-99.99,meteohub,2013-01-12 08:07:00,
2013-01-12 01:12:00,-2.4,17.6,17.73,SSW,204,0.0,0.0,23,-99.99,,,-99.99,meteohub,2013-01-12 08:12:00,
2013-01-12 01:17:00,-2.4,17.2,17.73,NW,321,0.0,0.0,22,-99.99,,,-99.99,meteohub,2013-01-12 08:17:00,
2013-01-12 01:22:00,-2.7,17.2,17.73,NNW,344,0.0,0.0,22,-99.99,,,-99.99,meteohub,2013-01-12 08:22:00,
2013-01-12 01:27:00,-3.1,18.0,17.73,NNW,344,0.0,0.0,23,-99.99,,,-99.99,meteohub,2013-01-12 08:27:00,
2013-01-12 01:32:00,-3.5,17.6,17.73,NNW,344,0.0,0.0,23,-99.99,,,-99.99,meteohub,2013-01-12 08:32:00,
2013-01-12 01:37:00,-3.3,17.6,17.73,NNW,344,0.0,0.0,23,-99.99,,,-99.99,meteohub,2013-01-12 08:37:00,
2013-01-12 01:42:00,-3.1,17.2,17.73,NNW,344,0.0,0.0,22,-99.99,,,-99.99,meteohub,2013-01-12 08:42:00,
2013-01-12 01:47:00,-2.9,18.1,17.73,NNW,338,0.0,0.0,23,-99.99,,,-99.99,meteohub,2013-01-12 08:47:00,
2013-01-12 01:52:00,-1.8,18.0,17.73,WNW,289,0.0,0.0,23,-99.99,,,-99.99,meteohub,2013-01-12 08:52:00,
2013-01-12 01:57:00,-0.6,17.6,17.73,WNW,298,0.0,0.0,23,-99.99,,,-99.99,meteohub,2013-01-12 08:57:00,
2013-01-12 02:02:00,-0.8,17.8,17.73,West,277,0.0,0.0,23,-99.99,,,-99.99,meteohub,2013-01-12 09:02:00,
2013-01-12 02:07:00,-1.3,17.2,17.73,West,277,0.0,0.0,22,-99.99,,,-99.99,meteohub,2013-01-12 09:07:00,
2013-01-12 02:12:00,-1.7,17.2,17.73,WNW,284,0.0,0.0,22,-99.99,,,-99.99,meteohub,2013-01-12 09:12:00,
2013-01-12 02:17:00,-2.4,18.0,17.73,WNW,284,0.0,0.0,23,-99.99,,,-99.99,meteohub,2013-01-12 09:17:00,
2013-01-12 02:22:00,-3.1,17.6,17.73,WNW,284,0.0,0.0,23,-99.99,,,-99.99,meteohub,2013-01-12 09:22:00,
2013-01-12 02:27:00,-3.5,17.6,17.73,NW,317,0.0,0.0,23,-99.99,,,-99.99,meteohub,2013-01-12 09:27:00,
2013-01-12 02:32:00,-3.3,17.2,17.73,WNW,290,0.0,0.0,22,-99.99,,,-99.99,meteohub,2013-01-12 09:32:00,
2013-01-12 02:37:00,-3.5,18.1,17.73,WNW,290,0.0,0.0,23,-99.99,,,-99.99,meteohub,2013-01-12 09:37:00,
2013-01-12 02:42:00,-4.0,17.8,17.73,WNW,290,0.0,0.0,23,-99.99,,,-99.99,meteohub,2013-01-12 09:42:00,
2013-01-12 02:47:00,-4.2,17.4,17.73,WNW,290,0.0,0.0,23,-99.99,,,-99.99,meteohub,2013-01-12 09:47:00,
2013-01-12 02:52:00,-4.7,17.8,17.73,WNW,290,0.0,0.0,23,-99.99,,,-99.99,meteohub,2013-01-12 09:52:00,
2013-01-12 02:57:00,-4.7,17.2,17.73,WNW,290,0.0,0.0,22,-99.99,,,-99.99,meteohub,2013-01-12 09:57:00,
2013-01-12 03:02:00,-4.7,18.1,17.73,WNW,290,0.0,0.0,23,-99.99,,,-99.99,meteohub,2013-01-12 10:02:00,
2013-01-12 03:07:00,-4.5,17.8,17.73,WNW,290,0.0,0.0,23,-99.99,,,-99.99,meteohub,2013-01-12 10:07:00,
2013-01-12 03:12:00,-4.7,17.4,17.73,WNW,290,0.0,0.0,23,-99.99,,,-99.99,meteohub,2013-01-12 10:12:00,
2013-01-12 03:18:00,-4.5,18.1,17.73,WNW,290,0.0,0.0,23,-99.99,,,-99.99,meteohub,2013-01-12 10:18:00,
2013-01-12 03:23:00,-4.5,17.2,17.73,WNW,290,0.0,0.0,22,-99.99,,,-99.99,meteohub,2013-01-12 10:23:00,
2013-01-12 03:28:00,-4.4,18.0,17.73,WNW,286,0.0,0.0,23,-99.99,,,-99.99,meteohub,2013-01-12 10:28:00,
2013-01-12 03:33:00,-4.9,17.6,17.73,WNW,291,0.0,0.0,23,-99.99,,,-99.99,meteohub,2013-01-12 10:33:00,
2013-01-12 03:38:00,-5.1,17.4,17.73,WNW,288,0.0,0.0,23,-99.99,,,-99.99,meteohub,2013-01-12 10:38:00,
2013-01-12 03:44:00,-4.7,17.2,17.73,WNW,294,0.0,0.0,22,-99.99,,,-99.99,meteohub,2013-01-12 10:44:00,
2013-01-12 03:49:00,-4.5,18.1,17.73,WNW,286,0.0,0.0,23,-99.99,,,-99.99,meteohub,2013-01-12 10:49:00,
2013-01-12 03:54:00,-5.3,17.8,17.73,SW,231,0.0,0.0,23,-99.99,,,-99.99,meteohub,2013-01-12 10:54:00,
2013-01-12 03:59:00,-6.2,17.6,17.73,NNW,333,0.0,0.0,23,-99.99,,,-99.99,meteohub,2013-01-12 10:59:00,
2013-01-12 04:04:00,-6.9,17.8,17.73,NNW,330,0.0,0.0,23,-99.99,,,-99.99,meteohub,2013-01-12 11:04:00,
2013-01-12 04:09:00,-6.7,17.2,17.73,WNW,283,0.0,0.0,22,-99.99,,,-99.99,meteohub,2013-01-12 11:09:00,
2013-01-12 04:15:00,-7.4,18.1,17.73,West,280,0.0,0.0,23,-99.99,,,-99.99,meteohub,2013-01-12 11:15:00,
2013-01-12 04:20:00,-7.6,17.8,17.73,WNW,287,0.0,0.0,23,-99.99,,,-99.99,meteohub,2013-01-12 11:20:00,
2013-01-12 04:25:00,-7.4,17.4,17.73,WNW,287,0.0,0.0,23,-99.99,,,-99.99,meteohub,2013-01-12 11:25:00,
2013-01-12 04:30:00,-8.3,17.8,17.73,WNW,287,0.0,0.0,23,-99.99,,,-99.99,meteohub,2013-01-12 11:30:00,
2013-01-12 04:35:00,-9.0,18.1,17.73,WNW,287,0.0,0.0,23,-99.99,,,-99.99,meteohub,2013-01-12 11:35:00,
2013-01-12 04:41:00,-10.8,17.8,17.73,WNW,287,0.0,0.0,23,-99.99,,,-99.99,meteohub,2013-01-12 11:41:00,
2013-01-12 04:46:00,-11.2,17.4,17.73,WNW,287,0.0,0.0,23,-99.99,,,-99.99,meteohub,2013-01-12 11:46:00,
2013-01-12 04:51:00,-11.2,17.4,17.73,WNW,287,0.0,0.0,23,-99.99,,,-99.99,meteohub,2013-01-12 11:51:00,
2013-01-12 04:56:00,-12.1,17.2,17.73,WNW,287,0.0,0.0,22,-99.99,,,-99.99,meteohub,2013-01-12 11:56:00,
2013-01-12 05:01:00,-12.1,18.1,17.73,WNW,287,0.0,0.0,23,-99.99,,,-99.99,meteohub,2013-01-12 12:01:00,
2013-01-12 05:07:00,-11.2,17.8,17.73,WNW,287,0.0,0.0,23,-99.99,,,-99.99,meteohub,2013-01-12 12:07:00,
2013-01-12 05:12:00,-11.0,17.4,17.73,WNW,284,0.0,0.0,23,-99.99,,,-99.99,meteohub,2013-01-12 12:12:00,
2013-01-12 05:17:00,-10.3,17.6,17.73,West,281,0.0,0.0,23,-99.99,,,-99.99,meteohub,2013-01-12 12:17:00,
2013-01-12 05:22:00,-11.2,17.2,17.73,WNW,284,0.0,0.0,22,-99.99,,,-99.99,meteohub,2013-01-12 12:22:00,
2013-01-12 05:27:00,-11.7,18.1,17.73,WNW,283,0.0,0.0,23,-99.99,,,-99.99,meteohub,2013-01-12 12:27:00,
2013-01-12 05:32:00,-12.8,17.6,17.73,WNW,282,0.0,0.0,23,-99.99,,,-99.99,meteohub,2013-01-12 12:32:00,
2013-01-12 05:37:00,-13.4,17.4,17.73,West,281,0.0,0.0,23,-99.99,,,-99.99,meteohub,2013-01-12 12:37:00,
2013-01-12 05:42:00,-13.5,17.8,17.73,WNW,282,0.0,0.0,23,-99.99,,,-99.99,meteohub,2013-01-12 12:42:00,
2013-01-12 05:47:00,-13.5,18.1,17.73,WNW,282,0.0,0.0,23,-99.99,,,-99.99,meteohub,2013-01-12 12:47:00,
2013-01-12 05:52:00,-13.0,18.0,17.73,WNW,282,0.0,0.0,23,-99.99,,,-99.99,meteohub,2013-01-12 12:52:00,
2013-01-12 05:57:00,-13.5,17.6,17.73,WNW,282,0.0,0.0,23,-99.99,,,-99.99,meteohub,2013-01-12 12:57:00,
2013-01-12 06:02:00,-14.8,17.4,17.73,WNW,282,0.0,0.0,23,-99.99,,,-99.99,meteohub,2013-01-12 13:02:00,
2013-01-12 06:07:00,-14.4,18.0,17.73,WNW,282,0.0,0.0,23,-99.99,,,-99.99,meteohub,2013-01-12 13:07:00,
2013-01-12 06:12:00,-14.6,18.1,17.73,WNW,282,0.0,0.0,23,-99.99,,,-99.99,meteohub,2013-01-12 13:12:00,
2013-01-12 06:17:00,-15.9,17.8,17.73,WNW,282,0.0,0.0,23,-99.99,,,-99.99,meteohub,2013-01-12 13:17:00,
2013-01-12 06:22:00,-15.5,17.4,17.73,WNW,282,0.0,0.0,23,-99.99,,,-99.99,meteohub,2013-01-12 13:22:00,
2013-01-12 06:27:00,-14.6,17.4,17.73,WNW,282,0.0,0.0,23,-99.99,,,-99.99,meteohub,2013-01-12 13:27:00,
2013-01-12 06:32:00,-15.0,18.1,17.73,West,281,0.0,0.0,23,-99.99,,,-99.99,meteohub,2013-01-12 13:32:00,
2013-01-12 06:37:00,-16.1,18.0,17.73,West,281,0.0,0.0,23,-99.99,,,-99.99,meteohub,2013-01-12 13:37:00,
2013-01-12 06:42:00,-16.6,17.6,17.73,West,281,0.0,0.0,23,-99.99,,,-99.99,meteohub,2013-01-12 13:42:00,
2013-01-12 06:47:00,-17.0,17.2,17.73,West,281,0.0,0.0,23,-99.99,,,-99.99,meteohub,2013-01-12 13:47:00,
2013-01-12 06:53:00,-16.4,17.8,17.73,West,281,0.0,0.0,23,-99.99,,,-99.99,meteohub,2013-01-12 13:53:00,
2013-01-12 06:58:00,-16.4,18.1,17.73,West,281,0.0,0.0,23,-99.99,,,-99.99,meteohub,2013-01-12 13:58:00,
2013-01-12 07:03:00,-16.1,17.6,17.73,West,281,0.0,0.0,23,-99.99,,,-99.99,meteohub,2013-01-12 14:03:00,
2013-01-12 07:08:00,-16.6,17.2,17.73,West,281,0.0,0.0,23,-99.99,,,-99.99,meteohub,2013-01-12 14:08:00,
2013-01-12 07:13:00,-16.4,17.4,17.73,WNW,283,0.0,0.0,23,-99.99,,,-99.99,meteohub,2013-01-12 14:13:00,
2013-01-12 07:19:00,-16.8,18.1,17.73,West,280,0.0,0.0,23,-99.99,,,-99.99,meteohub,2013-01-12 14:19:00,
2013-01-12 07:24:00,-17.0,17.8,17.73,West,279,0.0,0.0,23,-99.99,,,-99.99,meteohub,2013-01-12 14:24:00,
2013-01-12 07:29:00,-17.3,17.4,17.73,WNW,285,0.0,0.0,23,-99.99,,,-99.99,meteohub,2013-01-12 14:29:00,
2013-01-12 07:34:00,-18.2,17.2,17.73,WNW,295,0.0,0.0,23,-99.99,,,-99.99,meteohub,2013-01-12 14:34:00,
2013-01-12 07:39:00,-19.3,18.0,17.73,WNW,295,0.0,0.0,23,-99.99,,,-99.99,meteohub,2013-01-12 14:39:00,
2013-01-12 07:45:00,-19.8,18.0,17.73,WNW,295,0.0,0.0,23,-99.99,,,-99.99,meteohub,2013-01-12 14:45:00,
2013-01-12 07:50:00,-20.4,17.6,17.73,WNW,295,0.0,0.0,23,-99.99,,,-99.99,meteohub,2013-01-12 14:50:00,
2013-01-12 07:55:00,-17.5,17.2,17.73,WNW,286,0.0,0.0,23,-99.99,,,-99.99,meteohub,2013-01-12 14:55:00,
2013-01-12 08:00:00,-18.0,17.6,17.73,WNW,286,0.0,0.0,23,-99.99,,,-99.99,meteohub,2013-01-12 15:00:00,
2013-01-12 08:05:00,-17.5,18.0,17.73,WNW,286,0.0,0.0,23,-99.99,,,-99.99,meteohub,2013-01-12 15:05:00,
2013-01-12 08:10:00,-18.9,17.6,17.73,WNW,286,0.0,0.0,23,-99.99,,,-99.99,meteohub,2013-01-12 15:10:00,
2013-01-12 08:16:00,-19.3,17.2,17.73,WNW,286,0.0,0.0,23,-99.99,,,-99.99,meteohub,2013-01-12 15:16:00,
2013-01-12 08:21:00,-17.0,17.2,17.73,WNW,286,0.0,0.0,23,-99.99,,,-99.99,meteohub,2013-01-12 15:21:00,
2013-01-12 08:26:00,-13.0,18.1,17.73,West,270,0.0,0.0,23,-99.99,,,-99.99,meteohub,2013-01-12 15:26:00,
2013-01-12 08:31:00,-9.6,18.0,17.73,West,269,0.0,0.0,23,-99.99,,,-99.99,meteohub,2013-01-12 15:31:00,
2013-01-12 08:36:00,-5.4,17.6,17.73,West,281,0.0,0.0,23,-99.99,,,-99.99,meteohub,2013-01-12 15:36:00,
2013-01-12 08:42:00,-7.6,17.4,17.73,NW,326,0.0,0.0,23,-99.99,,,-99.99,meteohub,2013-01-12 15:42:00,
2013-01-12 08:47:00,-6.3,17.8,17.73,West,262,0.0,0.0,23,-99.99,,,-99.99,meteohub,2013-01-12 15:47:00,
2013-01-12 08:52:00,-4.4,17.2,17.73,West,262,0.0,0.0,22,-99.99,,,-99.99,meteohub,2013-01-12 15:52:00,
2013-01-12 08:57:00,-0.6,18.1,17.73,West,262,0.0,0.0,23,-99.99,,,-99.99,meteohub,2013-01-12 15:57:00,
2013-01-12 09:02:00,0.9,14.5,17.73,West,262,0.0,0.0,20,-99.99,,,-99.99,meteohub,2013-01-12 16:02:00,
2013-01-12 09:07:00,3.2,14.4,17.73,WNW,301,0.0,0.0,20,-99.99,,,-99.99,meteohub,2013-01-12 16:07:00,
2013-01-12 09:13:00,6.8,17.2,17.73,West,272,0.0,0.0,22,-99.99,,,-99.99,meteohub,2013-01-12 16:13:00,
2013-01-12 09:18:00,9.7,17.2,17.73,West,276,0.0,0.0,22,-99.99,,,-99.99,meteohub,2013-01-12 16:18:00,
2013-01-12 09:23:00,11.7,18.1,17.73,West,272,0.0,0.0,23,-99.99,,,-99.99,meteohub,2013-01-12 16:23:00,
2013-01-12 09:28:00,8.1,14.7,17.73,SW,231,0.0,0.0,20,-99.99,,,-99.99,meteohub,2013-01-12 16:28:00,
2013-01-12 09:33:00,6.1,14.5,17.73,West,260,0.0,0.0,20,-99.99,,,-99.99,meteohub,2013-01-12 16:33:00,
2013-01-12 09:38:00,3.7,17.2,17.73,WSW,256,0.0,0.0,22,-99.99,,,-99.99,meteohub,2013-01-12 16:38:00,
2013-01-12 09:44:00,1.2,17.4,17.73,SW,227,0.0,0.0,22,-99.99,,,-99.99,meteohub,2013-01-12 16:44:00,
2013-01-12 09:49:00,-3.3,17.2,17.73,South,177,0.0,0.0,22,-99.99,,,-99.99,meteohub,2013-01-12 16:49:00,
2013-01-12 09:54:00,-0.6,18.1,17.73,South,184,0.0,0.0,23,-99.99,,,-99.99,meteohub,2013-01-12 16:54:00,
2013-01-12 09:59:00,0.3,14.5,17.73,SSW,213,0.0,0.0,20,-99.99,,,-99.99,meteohub,2013-01-12 16:59:00,
2013-01-12 10:04:00,0.7,18.1,17.73,SW,222,0.0,0.0,23,-99.99,,,-99.99,meteohub,2013-01-12 17:04:00,
2013-01-12 10:09:00,1.4,17.4,17.73,SW,222,0.0,0.0,22,-99.99,,,-99.99,meteohub,2013-01-12 17:09:00,
2013-01-12 10:15:00,1.2,15.1,17.73,SW,220,0.0,0.0,20,-99.99,,,-99.99,meteohub,2013-01-12 17:15:00,
2013-01-12 10:20:00,3.7,17.2,17.73,SW,220,0.0,0.0,22,-99.99,,,-99.99,meteohub,2013-01-12 17:20:00,
2013-01-12 10:25:00,5.4,14.7,17.73,SW,220,0.0,0.0,20,-99.99,,,-99.99,meteohub,2013-01-12 17:25:00,
2013-01-12 10:30:00,6.3,14.5,17.73,SW,220,0.0,0.0,20,-99.99,,,-99.99,meteohub,2013-01-12 17:30:00,
2013-01-12 10:35:00,7.9,17.2,17.73,SW,220,0.0,0.0,22,-99.99,,,-99.99,meteohub,2013-01-12 17:35:00,
2013-01-12 10:41:00,10.0,15.3,17.73,SW,224,0.0,0.0,20,-99.99,,,-99.99,meteohub,2013-01-12 17:41:00,
2013-01-12 10:46:00,10.0,17.2,17.73,WNW,286,0.0,0.0,22,-99.99,,,-99.99,meteohub,2013-01-12 17:46:00,
2013-01-12 10:51:00,10.0,14.9,17.73,West,266,0.0,0.0,20,-99.99,,,-99.99,meteohub,2013-01-12 17:51:00,
2013-01-12 10:56:00,10.0,14.5,17.73,WNW,286,0.0,0.0,20,-99.99,,,-99.99,meteohub,2013-01-12 17:56:00,
2013-01-12 11:01:00,9.7,14.9,17.73,WNW,286,0.0,0.0,20,-99.99,,,-99.99,meteohub,2013-01-12 18:01:00,
2013-01-12 11:06:00,8.1,15.3,17.73,WNW,285,0.0,0.0,20,-99.99,,,-99.99,meteohub,2013-01-12 18:06:00,
2013-01-12 11:12:00,7.5,14.9,17.73,WNW,285,0.0,0.0,20,-99.99,,,-99.99,meteohub,2013-01-12 18:12:00,
2013-01-12 11:17:00,8.4,14.9,17.73,WNW,285,0.0,0.0,20,-99.99,,,-99.99,meteohub,2013-01-12 18:17:00,
2013-01-12 11:22:00,9.7,14.5,17.73,WNW,284,0.0,0.0,20,-99.99,,,-99.99,meteohub,2013-01-12 18:22:00,
2013-01-12 11:27:00,10.9,14.7,17.73,WNW,284,0.0,0.0,20,-99.99,,,-99.99,meteohub,2013-01-12 18:27:00,
2013-01-12 11:32:00,11.5,15.1,17.73,WNW,284,0.0,0.0,20,-99.99,,,-99.99,meteohub,2013-01-12 18:32:00,
2013-01-12 11:37:00,12.6,17.2,17.73,WNW,284,0.0,0.0,22,-99.99,,,-99.99,meteohub,2013-01-12 18:37:00,
2013-01-12 11:42:00,13.6,14.9,17.73,WNW,284,0.0,0.0,20,-99.99,,,-99.99,meteohub,2013-01-12 18:42:00,
2013-01-12 11:47:00,14.2,14.7,17.73,WNW,284,0.0,0.0,20,-99.99,,,-99.99,meteohub,2013-01-12 18:47:00,
2013-01-12 11:52:00,13.1,14.5,17.73,WNW,284,0.0,0.0,20,-99.99,,,-99.99,meteohub,2013-01-12 18:52:00,
2013-01-12 11:57:00,10.0,15.3,17.73,WNW,284,0.0,0.0,20,-99.99,,,-99.99,meteohub,2013-01-12 18:57:00,
2013-01-12 12:02:00,8.1,15.1,17.73,SW,215,0.0,0.0,20,-99.99,,,-99.99,meteohub,2013-01-12 19:02:00,
2013-01-12 12:07:00,8.6,14.9,17.73,West,265,0.0,0.0,20,-99.99,,,-99.99,meteohub,2013-01-12 19:07:00,
2013-01-12 12:12:00,10.9,14.7,17.73,West,277,0.0,0.0,20,-99.99,,,-99.99,meteohub,2013-01-12 19:12:00,
2013-01-12 12:17:00,12.7,14.5,17.73,WNW,289,0.0,0.0,20,-99.99,,,-99.99,meteohub,2013-01-12 19:17:00,
2013-01-12 12:22:00,13.8,17.2,17.73,WSW,251,0.0,0.0,22,-99.99,,,-99.99,meteohub,2013-01-12 19:22:00,
2013-01-12 12:28:00,15.1,15.1,17.73,WNW,282,0.0,0.0,20,-99.99,,,-99.99,meteohub,2013-01-12 19:28:00,
2013-01-12 12:33:00,15.3,14.9,17.73,WSW,257,0.0,0.0,20,-99.99,,,-99.99,meteohub,2013-01-12 19:33:00,
2013-01-12 12:38:00,8.6,14.7,17.73,SSW,207,0.0,0.0,20,-99.99,,,-99.99,meteohub,2013-01-12 19:38:00,
2013-01-12 12:43:00,7.2,14.5,17.73,South,175,0.0,0.0,20,-99.99,,,-99.99,meteohub,2013-01-12 19:43:00,
2013-01-12 12:49:00,5.9,17.2,17.73,South,177,0.0,0.0,22,-99.99,,,-99.99,meteohub,2013-01-12 19:49:00,
2013-01-12 12:54:00,5.4,15.3,17.73,SSW,193,0.0,0.0,20,-99.99,,,-99.99,meteohub,2013-01-12 19:54:00,
2013-01-12 12:59:00,5.4,17.2,17.73,South,187,0.0,0.0,22,-99.99,,,-99.99,meteohub,2013-01-12 19:59:00,
2013-01-12 13:04:00,5.4,14.9,17.73,SSE,162,0.0,0.0,20,-99.99,,,-99.99,meteohub,2013-01-12 20:04:00,
2013-01-12 13:09:00,5.4,14.5,17.73,SSE,168,0.0,0.0,20,-99.99,,,-99.99,meteohub,2013-01-12 20:09:00,
2013-01-12 13:14:00,5.4,14.7,17.73,South,174,0.0,0.0,20,-99.99,,,-99.99,meteohub,2013-01-12 20:14:00,
2013-01-12 13:20:00,4.8,17.6,17.73,SSW,196,0.0,0.0,22,-99.99,,,-99.99,meteohub,2013-01-12 20:20:00,
2013-01-12 13:25:00,4.8,15.1,17.73,SSW,198,0.0,0.0,20,-99.99,,,-99.99,meteohub,2013-01-12 20:25:00,
2013-01-12 13:30:00,5.5,14.9,17.73,SSW,199,0.0,0.0,20,-99.99,,,-99.99,meteohub,2013-01-12 20:30:00,
2013-01-12 13:35:00,6.3,14.7,17.73,SSW,212,0.0,0.0,20,-99.99,,,-99.99,meteohub,2013-01-12 20:35:00,
2013-01-12 13:40:00,7.5,14.5,17.73,SW,228,0.0,0.0,20,-99.99,,,-99.99,meteohub,2013-01-12 20:40:00,
2013-01-12 13:46:00,9.7,17.4,17.73,WSW,253,0.0,0.0,22,-99.99,,,-99.99,meteohub,2013-01-12 20:46:00,
2013-01-12 13:51:00,11.3,15.3,17.73,WSW,256,0.0,0.0,20,-99.99,,,-99.99,meteohub,2013-01-12 20:51:00,
2013-01-12 13:56:00,12.2,17.2,17.73,WNW,291,0.0,0.0,22,-99.99,,,-99.99,meteohub,2013-01-12 20:56:00,
2013-01-12 14:01:00,10.9,14.7,17.73,SW,217,0.0,0.0,20,-99.99,,,-99.99,meteohub,2013-01-12 21:01:00,
2013-01-12 14:06:00,9.3,14.5,17.73,SW,220,0.0,0.0,20,-99.99,,,-99.99,meteohub,2013-01-12 21:06:00,
2013-01-12 14:11:00,8.8,17.2,17.73,SW,224,0.0,0.0,22,-99.99,,,-99.99,meteohub,2013-01-12 21:11:00,
2013-01-12 14:17:00,9.5,15.3,17.73,WNW,299,0.0,0.0,20,-99.99,,,-99.99,meteohub,2013-01-12 21:17:00,
2013-01-12 14:22:00,10.8,15.1,17.73,WNW,295,0.0,0.0,20,-99.99,,,-99.99,meteohub,2013-01-12 21:22:00,
2013-01-12 14:27:00,10.8,14.9,17.73,WNW,297,0.0,0.0,20,-99.99,,,-99.99,meteohub,2013-01-12 21:27:00,
2013-01-12 14:32:00,10.8,14.5,17.73,NW,323,0.0,0.0,20,-99.99,,,-99.99,meteohub,2013-01-12 21:32:00,
2013-01-12 14:37:00,10.8,14.7,17.73,NW,308,0.0,0.0,20,-99.99,,,-99.99,meteohub,2013-01-12 21:37:00,
2013-01-12 14:42:00,10.2,17.4,17.73,West,279,0.0,0.0,22,-99.99,,,-99.99,meteohub,2013-01-12 21:42:00,
2013-01-12 14:47:00,9.7,15.1,17.73,WNW,294,0.0,0.0,20,-99.99,,,-99.99,meteohub,2013-01-12 21:47:00,
2013-01-12 14:52:00,9.5,17.2,17.73,NW,304,0.0,0.0,22,-99.99,,,-99.99,meteohub,2013-01-12 21:52:00,
2013-01-12 14:57:00,9.5,14.7,17.73,NW,318,0.0,0.0,20,-99.99,,,-99.99,meteohub,2013-01-12 21:57:00,
2013-01-12 15:02:00,9.3,14.5,17.73,WNW,302,0.0,0.0,20,-99.99,,,-99.99,meteohub,2013-01-12 22:02:00,
2013-01-12 15:08:00,9.1,17.2,17.73,North,349,0.0,0.0,22,-99.99,,,-99.99,meteohub,2013-01-12 22:08:00,
2013-01-12 15:13:00,8.8,17.4,17.73,WNW,300,0.0,0.0,22,-99.99,,,-99.99,meteohub,2013-01-12 22:13:00,
2013-01-12 15:18:00,8.6,17.2,17.73,WSW,255,0.0,0.0,22,-99.99,,,-99.99,meteohub,2013-01-12 22:18:00,
2013-01-12 15:23:00,8.6,14.7,17.73,West,268,0.0,0.0,20,-99.99,,,-99.99,meteohub,2013-01-12 22:23:00,
2013-01-12 15:28:00,9.0,14.4,17.73,West,279,0.0,0.0,20,-99.99,,,-99.99,meteohub,2013-01-12 22:28:00,
2013-01-12 15:34:00,9.1,18.1,17.73,WNW,284,0.0,0.0,23,-99.99,,,-99.99,meteohub,2013-01-12 22:34:00,
2013-01-12 15:39:00,9.3,17.2,17.73,WSW,251,0.0,0.0,22,-99.99,,,-99.99,meteohub,2013-01-12 22:39:00,
2013-01-12 15:44:00,9.0,17.2,17.73,WNW,298,0.0,0.0,22,-99.99,,,-99.99,meteohub,2013-01-12 22:44:00,
2013-01-12 15:49:00,8.8,14.7,17.73,WNW,289,0.0,0.0,20,-99.99,,,-99.99,meteohub,2013-01-12 22:49:00,
2013-01-12 15:55:00,8.4,14.5,17.73,NW,314,0.0,0.0,20,-99.99,,,-99.99,meteohub,2013-01-12 22:55:00,
2013-01-12 16:00:00,8.2,18.1,17.73,WNW,302,0.0,0.0,23,-99.99,,,-99.99,meteohub,2013-01-12 23:00:00,
2013-01-12 16:05:00,7.9,17.2,17.73,NW,313,0.0,0.0,22,-99.99,,,-99.99,meteohub,2013-01-12 23:05:00,
2013-01-12 16:10:00,7.7,18.1,17.73,WNW,293,0.0,0.0,23,-99.99,,,-99.99,meteohub,2013-01-12 23:10:00,
2013-01-12 16:15:00,7.5,14.7,17.73,WSW,247,0.0,0.0,20,-99.99,,,-99.99,meteohub,2013-01-12 23:15:00,
2013-01-12 16:21:00,7.0,14.4,17.73,NW,305,0.0,0.0,20,-99.99,,,-99.99,meteohub,2013-01-12 23:21:00,
2013-01-12 16:26:00,6.3,18.1,17.73,WNW,282,0.0,0.0,23,-99.99,,,-99.99,meteohub,2013-01-12 23:26:00,
2013-01-12 16:31:00,5.9,17.2,17.73,WNW,295,0.0,0.0,22,-99.99,,,-99.99,meteohub,2013-01-12 23:31:00,
2013-01-12 16:37:00,5.4,18.1,17.73,NW,325,0.0,0.0,23,-99.99,,,-99.99,meteohub,2013-01-12 23:37:00,
2013-01-12 16:42:00,5.0,14.7,17.73,WNW,301,0.0,0.0,20,-99.99,,,-99.99,meteohub,2013-01-12 23:42:00,
2013-01-12 16:47:00,4.5,14.4,17.73,SW,235,0.0,0.0,20,-99.99,,,-99.99,meteohub,2013-01-12 23:47:00,
2013-01-12 16:52:00,4.1,18.1,17.73,WSW,248,0.0,0.0,23,-99.99,,,-99.99,meteohub,2013-01-12 23:52:00,
2013-01-12 16:57:00,3.7,17.2,17.73,SW,215,0.0,0.0,22,-99.99,,,-99.99,meteohub,2013-01-12 23:57:00,
2013-01-12 17:02:00,3.4,18.1,17.73,WNW,297,0.0,0.0,23,-99.99,,,-99.99,meteohub,2013-01-13 00:02:00,
2013-01-12 17:07:00,3.2,14.5,17.73,WNW,300,0.0,0.0,20,-99.99,,,-99.99,meteohub,2013-01-13 00:07:00,
2013-01-12 17:12:00,3.4,14.4,17.73,WNW,293,0.0,0.0,20,-99.99,,,-99.99,meteohub,2013-01-13 00:12:00,
2013-01-12 17:17:00,3.0,18.0,17.73,WNW,294,0.0,0.0,23,-99.99,,,-99.99,meteohub,2013-01-13 00:17:00,
2013-01-12 17:22:00,2.7,17.2,17.73,West,280,0.0,0.0,22,-99.99,,,-99.99,meteohub,2013-01-13 00:22:00,
2013-01-12 17:28:00,3.0,18.0,17.73,NW,309,0.0,0.0,23,-99.99,,,-99.99,meteohub,2013-01-13 00:28:00,
2013-01-12 17:33:00,3.2,14.4,17.73,WNW,292,0.0,0.0,20,-99.99,,,-99.99,meteohub,2013-01-13 00:33:00,
2013-01-12 17:38:00,2.1,14.2,17.73,West,265,0.0,0.0,20,-99.99,,,-99.99,meteohub,2013-01-13 00:38:00,
2013-01-12 17:43:00,1.2,17.2,17.73,NW,304,0.0,0.0,22,-99.99,,,-99.99,meteohub,2013-01-13 00:43:00,
2013-01-12 17:49:00,0.9,17.2,17.73,West,261,0.0,0.0,22,-99.99,,,-99.99,meteohub,2013-01-13 00:49:00,
2013-01-12 17:54:00,0.1,14.7,17.73,SW,219,0.0,0.0,20,-99.99,,,-99.99,meteohub,2013-01-13 00:54:00,
2013-01-12 17:59:00,-2.0,14.4,17.73,SW,218,0.0,0.0,20,-99.99,,,-99.99,meteohub,2013-01-13 00:59:00,
2013-01-12 18:04:00,-1.8,14.4,17.73,SW,233,0.0,0.0,20,-99.99,,,-99.99,meteohub,2013-01-13 01:04:00,
2013-01-12 18:10:00,-2.0,17.2,17.73,SW,216,0.0,0.0,22,-99.99,,,-99.99,meteohub,2013-01-13 01:10:00,
2013-01-12 18:15:00,-2.2,18.1,17.73,SW,214,0.0,0.0,23,-99.99,,,-99.99,meteohub,2013-01-13 01:15:00,
2013-01-12 18:20:00,-2.4,14.5,17.73,SW,233,0.0,0.0,20,-99.99,,,-99.99,meteohub,2013-01-13 01:20:00,
2013-01-12 18:26:00,-2.0,14.2,17.73,SW,219,0.0,0.0,20,-99.99,,,-99.99,meteohub,2013-01-13 01:26:00,
2013-01-12 18:31:00,-1.5,14.7,17.73,SW,236,0.0,0.0,20,-99.99,,,-99.99,meteohub,2013-01-13 01:31:00,
2013-01-12 18:36:00,-0.4,17.2,17.73,WNW,302,0.0,0.0,22,-99.99,,,-99.99,meteohub,2013-01-13 01:36:00,
2013-01-12 18:41:00,0.3,18.0,17.73,NW,312,0.0,0.0,23,-99.99,,,-99.99,meteohub,2013-01-13 01:41:00,
2013-01-12 18:47:00,0.5,14.5,17.73,SW,236,0.0,0.0,20,-99.99,,,-99.99,meteohub,2013-01-13 01:47:00,
2013-01-12 18:52:00,-0.6,14.2,17.73,SSW,208,0.0,0.0,20,-99.99,,,-99.99,meteohub,2013-01-13 01:52:00,
2013-01-12 18:57:00,-1.3,18.1,17.73,SSW,208,0.0,0.0,23,-99.99,,,-99.99,meteohub,2013-01-13 01:57:00,
2013-01-12 19:02:00,-1.5,17.2,17.73,SSW,208,0.0,0.0,22,-99.99,,,-99.99,meteohub,2013-01-13 02:02:00,
2013-01-12 19:07:00,-1.5,14.7,17.73,SSW,213,0.0,0.0,20,-99.99,,,-99.99,meteohub,2013-01-13 02:07:00,
2013-01-12 19:12:00,-1.5,14.4,17.73,SSW,213,0.0,0.0,20,-99.99,,,-99.99,meteohub,2013-01-13 02:12:00,
2013-01-12 19:17:00,-1.7,14.2,17.73,SSW,213,0.0,0.0,20,-99.99,,,-99.99,meteohub,2013-01-13 02:17:00,
2013-01-12 19:22:00,-1.8,18.1,17.73,SSW,213,0.0,0.0,23,-99.99,,,-99.99,meteohub,2013-01-13 02:22:00,
2013-01-12 19:27:00,-1.8,18.1,17.73,SSW,213,0.0,0.0,23,-99.99,,,-99.99,meteohub,2013-01-13 02:27:00,
2013-01-12 19:32:00,-1.7,14.5,17.73,SSW,213,0.0,0.0,20,-99.99,,,-99.99,meteohub,2013-01-13 02:32:00,
2013-01-12 19:37:00,-1.3,14.4,17.73,SSW,213,0.0,0.0,20,-99.99,,,-99.99,meteohub,2013-01-13 02:37:00,
2013-01-12 19:42:00,-1.3,14.4,17.73,SSW,213,0.0,0.0,20,-99.99,,,-99.99,meteohub,2013-01-13 02:42:00,
2013-01-12 19:47:00,-0.9,17.2,17.73,SSW,213,0.0,0.0,22,-99.99,,,-99.99,meteohub,2013-01-13 02:47:00,
2013-01-12 19:52:00,-1.1,18.1,17.73,SSW,213,0.0,0.0,23,-99.99,,,-99.99,meteohub,2013-01-13 02:52:00,
2013-01-12 19:57:00,-1.3,14.5,17.73,SSW,213,0.0,0.0,20,-99.99,,,-99.99,meteohub,2013-01-13 02:57:00,
2013-01-12 20:03:00,-1.3,14.2,17.73,SSW,213,0.0,0.0,20,-99.99,,,-99.99,meteohub,2013-01-13 03:03:00,
2013-01-12 20:08:00,-1.5,14.5,17.73,SSW,213,0.0,0.0,20,-99.99,,,-99.99,meteohub,2013-01-13 03:08:00,
2013-01-12 20:13:00,-1.3,17.2,17.73,SSW,213,0.0,0.0,22,-99.99,,,-99.99,meteohub,2013-01-13 03:13:00,
2013-01-12 20:18:00,-1.5,14.9,17.73,SSW,213,0.0,0.0,20,-99.99,,,-99.99,meteohub,2013-01-13 03:18:00,
2013-01-12 20:23:00,-1.1,14.5,17.73,SSW,213,0.0,0.0,20,-99.99,,,-99.99,meteohub,2013-01-13 03:23:00,
2013-01-12 20:29:00,-0.9,14.2,17.73,SSW,213,0.0,0.0,20,-99.99,,,-99.99,meteohub,2013-01-13 03:29:00,
2013-01-12 20:34:00,-0.9,14.7,17.73,SSW,213,0.0,0.0,20,-99.99,,,-99.99,meteohub,2013-01-13 03:34:00,
2013-01-12 20:39:00,-1.3,17.2,17.73,SSW,213,0.0,0.0,22,-99.99,,,-99.99,meteohub,2013-01-13 03:39:00,
2013-01-12 20:44:00,-2.2,18.0,17.73,SSW,213,0.0,0.0,23,-99.99,,,-99.99,meteohub,2013-01-13 03:44:00,
2013-01-12 20:49:00,-2.4,14.4,17.73,SSW,213,0.0,0.0,20,-99.99,,,-99.99,meteohub,2013-01-13 03:49:00,
2013-01-12 20:54:00,-2.6,14.2,17.73,SSW,213,0.0,0.0,20,-99.99,,,-99.99,meteohub,2013-01-13 03:54:00,
2013-01-12 21:00:00,-2.7,17.2,17.73,SSW,213,0.0,0.0,22,-99.99,,,-99.99,meteohub,2013-01-13 04:00:00,
2013-01-12 21:05:00,-2.7,17.2,17.73,SSW,213,0.0,0.0,22,-99.99,,,-99.99,meteohub,2013-01-13 04:05:00,
2013-01-12 21:10:00,-2.9,14.7,17.73,SSW,213,0.0,0.0,20,-99.99,,,-99.99,meteohub,2013-01-13 04:10:00,
2013-01-12 21:15:00,-3.1,14.4,17.73,SSW,213,0.0,0.0,20,-99.99,,,-99.99,meteohub,2013-01-13 04:15:00,
2013-01-12 21:20:00,-3.3,14.4,17.73,SSW,213,0.0,0.0,20,-99.99,,,-99.99,meteohub,2013-01-13 04:20:00,
2013-01-12 21:26:00,-3.6,17.2,17.73,SSW,213,0.0,0.0,22,-99.99,,,-99.99,meteohub,2013-01-13 04:26:00,
2013-01-12 21:31:00,-4.0,18.1,17.73,SSW,213,0.0,0.0,23,-99.99,,,-99.99,meteohub,2013-01-13 04:31:00,
2013-01-12 21:36:00,-4.0,14.5,17.73,SSW,213,0.0,0.0,20,-99.99,,,-99.99,meteohub,2013-01-13 04:36:00,
2013-01-12 21:41:00,-4.4,14.2,17.73,SSW,213,0.0,0.0,20,-99.99,,,-99.99,meteohub,2013-01-13 04:41:00,
2013-01-12 21:47:00,-4.9,14.7,17.73,SSW,213,0.0,0.0,20,-99.99,,,-99.99,meteohub,2013-01-13 04:47:00,
2013-01-12 21:52:00,-5.3,17.2,17.73,SSW,213,0.0,0.0,22,-99.99,,,-99.99,meteohub,2013-01-13 04:52:00,
2013-01-12 21:57:00,-5.3,14.7,17.73,SSW,212,0.0,0.0,20,-99.99,,,-99.99,meteohub,2013-01-13 04:57:00,
2013-01-12 22:02:00,-4.7,14.4,17.73,West,281,0.0,0.0,20,-99.99,,,-99.99,meteohub,2013-01-13 05:02:00,
2013-01-12 22:04:00,-5.1,14.2,17.73,West,281,0.0,0.0,20,-99.99,,,-99.99,meteohub,2013-01-13 05:04:00,
2013-01-12 22:05:00,-5.1,14.2,17.73,West,281,0.0,0.0,20,-99.99,,,-99.99,meteohub,2013-01-13 05:05:00,
2013-01-12 22:06:00,-5.3,14.2,17.73,West,281,0.0,0.0,20,-99.99,,,-99.99,meteohub,2013-01-13 05:06:00,
2013-01-12 22:11:00,-5.6,14.7,17.73,West,281,0.0,0.0,20,-99.99,,,-99.99,meteohub,2013-01-13 05:11:00,
2013-01-12 22:16:00,-6.7,17.2,17.73,West,280,0.0,0.0,22,-99.99,,,-99.99,meteohub,2013-01-13 05:16:00,
2013-01-12 22:21:00,-7.8,14.7,17.73,WNW,292,0.0,0.0,20,-99.99,,,-99.99,meteohub,2013-01-13 05:21:00,
2013-01-12 22:26:00,-8.7,14.4,17.73,WNW,288,0.0,0.0,20,-99.99,,,-99.99,meteohub,2013-01-13 05:26:00,
2013-01-12 22:32:00,-8.7,14.2,17.73,WNW,288,0.0,0.0,20,-99.99,,,-99.99,meteohub,2013-01-13 05:32:00,
2013-01-12 22:37:00,-9.0,14.9,17.73,WNW,288,0.0,0.0,20,-99.99,,,-99.99,meteohub,2013-01-13 05:37:00,
2013-01-12 22:42:00,-9.4,14.9,17.73,WNW,287,0.0,0.0,20,-99.99,,,-99.99,meteohub,2013-01-13 05:42:00,
2013-01-12 22:47:00,-9.6,14.7,17.73,WNW,288,0.0,0.0,20,-99.99,,,-99.99,meteohub,2013-01-13 05:47:00,
2013-01-12 22:52:00,-10.7,14.4,17.73,WNW,288,0.0,0.0,20,-99.99,,,-99.99,meteohub,2013-01-13 05:52:00,
2013-01-12 22:57:00,-10.7,14.2,17.73,WNW,288,0.0,0.0,20,-99.99,,,-99.99,meteohub,2013-01-13 05:57:00,
2013-01-12 23:02:00,-9.9,14.9,17.73,WNW,288,0.0,0.0,20,-99.99,,,-99.99,meteohub,2013-01-13 06:02:00,
2013-01-12 23:07:00,-8.9,14.9,17.73,WNW,287,0.0,0.0,20,-99.99,,,-99.99,meteohub,2013-01-13 06:07:00,
2013-01-12 23:12:00,-9.6,14.4,17.73,West,281,0.0,0.0,20,-99.99,,,-99.99,meteohub,2013-01-13 06:12:00,
2013-01-12 23:17:00,-9.9,14.2,17.73,West,281,0.0,0.0,20,-99.99,,,-99.99,meteohub,2013-01-13 06:17:00,
2013-01-12 23:22:00,-10.5,14.5,17.73,West,281,0.0,0.0,20,-99.99,,,-99.99,meteohub,2013-01-13 06:22:00,
2013-01-12 23:28:00,-10.5,14.9,17.73,West,281,0.0,0.0,20,-99.99,,,-99.99,meteohub,2013-01-13 06:28:00,
2013-01-12 23:33:00,-10.3,14.7,17.73,West,281,0.0,0.0,20,-99.99,,,-99.99,meteohub,2013-01-13 06:33:00,
2013-01-12 23:38:00,-10.5,14.4,17.73,West,281,0.0,0.0,20,-99.99,,,-99.99,meteohub,2013-01-13 06:38:00,
2013-01-12 23:43:00,-10.7,14.2,17.73,West,281,0.0,0.0,20,-99.99,,,-99.99,meteohub,2013-01-13 06:43:00,
2013-01-12 23:48:00,-10.8,14.9,17.73,West,281,0.0,0.0,20,-99.99,,,-99.99,meteohub,2013-01-13 06:48:00,
2013-01-12 23:53:00,-11.0,14.9,17.73,West,281,0.0,0.0,20,-99.99,,,-99.99,meteohub,2013-01-13 06:53:00,
2013-01-12 23:59:00,-11.2,14.5,17.73,West,281,0.0,0.0,20,-99.99,,,-99.99,meteohub,2013-01-13 06:59:00,